Location: Mactaquac Provincial Park
(45.9573°N, 66.8897°W)
Time: 03:48:11
(UTC-04:00)

Cosmos 1867 - Visible Passes

Search period start: 12 February 2016 00:00
Search period end: 22 February 2016 00:00
Orbit: 773 x 803 km, 65.0° (Epoch: 11 February)

Date Brightness Start Highest point End Pass type
(mag) Time Alt. Az. Time Alt. Az. Time Alt. Az.
12 Feb 6.0 03:43:00 18° NE 03:43:00 18° NE 03:44:21 10° NE visible
12 Feb 5.0 05:23:40 24° NNW 05:23:40 24° NNW 05:27:32 10° NNE visible
13 Feb 6.5 03:12:20 12° NE 03:12:20 12° NE 03:12:40 10° NE visible
13 Feb 5.1 04:53:00 24° N 04:53:00 24° N 04:56:01 10° NNE visible
13 Feb 5.7 06:34:47 10° NW 06:36:44 12° NNW 06:38:39 10° N visible
14 Feb 5.5 04:22:18 22° N 04:22:18 22° N 04:24:29 10° NNE visible
14 Feb 5.6 06:02:58 11° NW 06:04:42 13° NNW 06:07:11 10° N visible
15 Feb 5.9 03:51:34 17° NNE 03:51:34 17° NNE 03:52:55 10° NNE visible
15 Feb 5.5 05:32:13 15° NNW 05:32:41 15° NNW 05:35:43 10° N visible
16 Feb 6.3 03:20:48 13° NNE 03:20:48 13° NNE 03:21:21 10° NNE visible
16 Feb 5.5 05:01:27 16° NNW 05:01:27 16° NNW 05:04:14 10° NNE visible
17 Feb 5.7 04:30:40 17° N 04:30:40 17° N 04:32:45 10° NNE visible
17 Feb 5.9 06:14:08 10° N 06:14:41 10° N 06:15:13 10° N visible
18 Feb 5.9 03:59:52 15° N 03:59:52 15° N 04:01:15 10° NNE visible
18 Feb 5.9 05:41:24 10° NNW 05:42:36 11° N 05:43:48 10° N visible
19 Feb 6.2 03:29:02 13° NNE 03:29:02 13° NNE 03:29:44 10° NNE visible
19 Feb 5.8 05:09:42 11° NNW 05:10:33 11° NNW 05:12:22 10° N visible
20 Feb 6.5 02:58:12 10° NNE 02:58:12 10° NNE 02:58:12 10° NNE visible
20 Feb 5.9 04:38:51 13° NNW 04:38:51 13° NNW 04:40:54 10° N visible
20 Feb 6.0 06:23:29 10° N 06:24:44 11° N 06:25:59 10° NNE visible
21 Feb 6.0 04:08:00 13° N 04:08:00 13° N 04:09:26 10° N visible
21 Feb 6.1 05:52:04 10° N 05:52:39 10° N 05:53:16 10° NNE visible
